Sheringham Point, British Columbia

5:23 AM PDT on August 22, 2017 (GMT -0700)
Sheringham Point

Weather History for CWSP - December, 2012

Change the Weather History Date:

Friday, December 7, 2012

  Actual Average Record
Temperature  
Mean Temperature 44 °F -  
Max Temperature 48 °F - - ()
Min Temperature 41 °F - - ()
Degree Days  
Heating Degree Days 20    
Moisture  
Dew Point 37 °F    
Average Humidity 76    
Maximum Humidity 90    
Minimum Humidity 55    
Precipitation  
Precipitation 0.20 in - - ()
Sea Level Pressure  
Sea Level Pressure 30.01 in    
Wind  
Wind Speed 18 mph ()    
Max Wind Speed 33 mph    
Max Gust Speed 40 mph    
T = Trace of Precipitation, MM = Missing Value Source: Averaged Metar Reports

Daily Weather History Graph

Daily Weather History Graph

Search for Another Location

Airport or City:

Trip Planner

Search our weather history database for the weather conditions in past years. The results will help you decide how hot, cold, wet, or windy it might be!

Date:

Astronomy

Dec. 07, 2012 Rise Set
Actual Time 7:53 AM PST 4:21 PM PST
Civil Twilight 7:17 AM PST 4:57 PM PST
Nautical Twilight 6:37 AM PST 5:37 PM PST
Astronomical Twilight 5:59 AM PST 6:15 PM PST
Moon 12:52 AM PST (12/7) 12:44 PM PST (12/7)
Length of Visible Light 9h 40m
Length of Day
8h 27m
Last Quarter, 37% of the Moon is Illuminated
Dec 7
Last Quarter
Dec 13
New
Dec 19
First Quarter
Dec 28
Full
Jan 4
Last Quarter

Hourly Weather History & Observations

Time (PST) Temp. Windchill Dew Point Humidity Pressure Visibility Wind Dir Wind Speed Gust Speed Precip Events Conditions
12:00 AM 46.4 °F 39.8 °F 41.2 °F 82% 30.01 in - WSW 16.1 mph - N/A   Unknown
1:00 AM 46.4 °F 37.9 °F 40.3 °F 79% 29.99 in - WSW 25.3 mph - 0.02 in   Unknown
2:00 AM 46.9 °F - 43.5 °F 88% 29.99 in - West 20.7 mph - N/A   Unknown
3:00 AM 47.8 °F - 42.1 °F 80% 29.97 in - West 21.9 mph - N/A   Unknown
4:00 AM 46 °F - 43 °F 84% 29.96 in - WNW 19.6 mph - -  
4:00 AM 46.0 °F 38.5 °F 42.6 °F 88% 29.96 in - WNW 19.6 mph 31.1 mph N/A   Unknown
5:00 AM 45.0 °F 34.7 °F 41.5 °F 88% 29.95 in - West 33.4 mph 40.3 mph 0.03 in   Unknown
6:00 AM 45.0 °F 36.2 °F 40.6 °F 85% 29.94 in - West 24.2 mph - 0.07 in   Unknown
7:00 AM 45.3 °F 36.5 °F 42.4 °F 90% 29.92 in - West 25.3 mph - 0.02 in   Unknown
8:00 AM 43.3 °F 35.2 °F 38.8 °F 84% 29.94 in - WNW 18.4 mph - 0.02 in   Unknown
9:00 AM 42.8 °F 33.5 °F 37.8 °F 82% 29.92 in - WNW 23.0 mph 31.1 mph N/A   Unknown
10:00 AM 42 °F - 38 °F 79% 29.94 in - WNW 23.0 mph - -  
10:00 AM 42.3 °F 32.8 °F 37.8 °F 84% 29.94 in - WNW 23.0 mph 28.8 mph 0.05 in   Unknown
11:00 AM 43.3 °F 32.5 °F 37.9 °F 81% 29.95 in - WNW 33.4 mph 40.3 mph 0.03 in   Unknown
12:00 PM 43.9 °F 33.6 °F 36.3 °F 75% 29.96 in - WNW 31.1 mph 38.0 mph 0.02 in   Unknown
1:00 PM 43.3 °F 33.4 °F 34.3 °F 71% 29.99 in - WNW 27.6 mph 34.5 mph N/A   Unknown
2:00 PM 43.3 °F 34.2 °F 34.5 °F 71% 30.00 in - WNW 23.0 mph 29.9 mph N/A   Unknown
3:00 PM 43.3 °F 35.5 °F 31.5 °F 63% 30.03 in - WNW 17.3 mph 24.2 mph N/A   Unknown
4:00 PM 42 °F - 31 °F 55% 30.05 in - WNW 11.5 mph - -  
4:00 PM 42.4 °F 36.1 °F 31.3 °F 65% 30.05 in - WNW 11.5 mph 17.3 mph N/A   Unknown
5:00 PM 41.9 °F 35.9 °F 30.0 °F 63% 30.06 in - WNW 10.4 mph - N/A   Unknown
6:00 PM 41.9 °F 35.4 °F 30.7 °F 65% 30.08 in - WNW 11.5 mph - N/A   Unknown
7:00 PM 42.3 °F 35.9 °F 33.3 °F 70% 30.09 in - WNW 11.5 mph - N/A   Unknown
8:00 PM 42.4 °F 35.3 °F 33.3 °F 70% 30.10 in - WNW 13.8 mph - N/A   Unknown
9:00 PM 42.3 °F 36.3 °F 35.4 °F 77% 30.11 in - WNW 10.4 mph - N/A   Unknown
10:00 PM 42 °F - 35 °F 68% 30.12 in - WNW 13.8 mph - -  
10:00 PM 42.3 °F 35.1 °F 35.1 °F 76% 30.12 in - WNW 13.8 mph - N/A   Unknown
11:00 PM 42.4 °F 35.3 °F 35.8 °F 77% 30.13 in - WNW 13.8 mph - N/A   Unknown